Retour au catalogue

THORAD DELTA 1 DEB

ActifSSO
NORAD 8396·DEBRIS·🇺🇸 United States

Lancé Nov 15, 1974 depuis Vandenberg Space Force Base

Loading…

Prochains Passages (prochaines 24 heures)

TLE

FraisSource: Space-Track

Époque: Sep 13, 2026, 03:22 UTC

1 08396U 74089BY  26256.14088006 -.00000065  00000-0 -13297-3 0  9990
2 08396 102.1153 332.0216 0063351 278.8006 110.4736 12.42766856353681

Suivez THORAD DELTA 1 DEB en temps réel avec AllMySat

Download on the App Store